Track STARLINK-5413 now! 10-day predictions STARLINK-5413 is classified as:
1 54808U 22175BC 24325.04617536 .00000171 00000-0 28808-4 0 9999 2 54808 53.2181 345.0482 0001384 84.3376 275.7774 15.08844893106523